Location: Bruderhein
(53.8035°N, 112.9265°W)
Time: 12:43:00
(UTC+00:00)

deb Delta 139 - Pass Details

Date: 05 December 2023
Orbit: 731 x 794 km, 98.6° (Epoch: 01 March)

Event Time Altitude Azimuth Distance (km) Brightness Sun altitude
Rises 01:59:06 0° 183° (S) 3,261 ? -23.2°
Maximum altitude 02:06:25 43° 261° (W) 1,071 ? -24.3°
Drops below altitude 10° 02:11:16 10° 334° (NNW) 2,306 ? -25.0°
Sets 02:13:40 0° 341° (NNW) 3,226 ? -25.4°
